Project,Study,Ord_Occ,Event_Num,Cast_ID,Date_Time_UTC,Date_Time_PST,Lat_Dec,Lon_Dec,Sta_ID,Line,Sta,Depth,Pressure,PrQ,Temp1,Temp1Q,Temp2,Temp2Q,TempAve,Salt1,Salt1Q,Salt1_Corr,Salt2,Salt2Q,Salt2_Corr,SaltAve_Corr,Ox1,Ox1Q,Ox1_CruiseCorr,Ox1_StaCorr,Ox2,Ox2Q,Ox2_CruiseCorr,Ox2_StaCorr,OxAve_StaCorr,Ox1uM,Ox1uM_CruiseCorr,Ox1uM_StaCorr,Ox2uM,Ox2uM_CruiseCorr,Ox2uM_StaCorr,OxAveuM_StaCorr,FluorV,FluorQ,EstChl_CruiseCorr,EstChl_StaCorr,ISUSV,ISUSQ,EstNO3_CruiseCorr,EstNO3_StaCorr,SigThetaTS1,SigThetaTS1Q,SigThetaTS2,SigThetaTS2Q,BAT,XMiss,TransQ,pH,pHQ,SPAR,SPARQ,PAR,PARQ,PoT1,PoT2,DynHt,SVA,OxSat1,OxSat2,BTL_Depth,BTL_Temp,SaltB,OxB,OxBuM,Chl-a,Phaeo,NO3,NO2,NH4,PO4,SIL
CalCOFI,2101RL,040,,2101_040d,24-Jan-2021 10:13:14,24-Jan-2021 02:13:14,32.98903,-120.34868,086.7 060.0,086.7,060.0,3.000,3.021,,13.6021,,13.6020,,13.6021,33.3649,,33.3707,33.3622,,33.3642,33.3675,5.7183,,5.9847,6.0685,5.6053,,5.9514,6.0264,6.0475,249.149,261.0694,264.7745,244.227,277.5100,262.9406,263.8576,0.1575,,1.0424,0.7678, ,, , ,25.0055,,25.0035,,0.8601,80.6518,,,,3.6841E+00,,1.0000E-12,,13.6017,13.6015,0.0022,294.329,96.681,94.769,3,,33.3419,5.946,259.41,0.736,0.240,,,,,
CalCOFI,2101RL,040,,2101_040d,24-Jan-2021 10:13:22,24-Jan-2021 02:13:22,32.98904,-120.34868,086.7 060.0,086.7,060.0,4.000,4.028,,13.5977,,13.5967,,13.5972,33.3647,,33.3705,33.3619,,33.3639,33.3672,5.7112,,5.9772,6.0610,5.6116,,5.9581,6.0331,6.0471,248.839,260.7449,264.4476,244.500,277.1653,263.2339,263.8408,0.1540,,1.0137,0.7475, ,, , ,25.0063,,25.0044,,0.8601,80.6517,,,,3.6948E+00,,1.0000E-12,,13.5971,13.5962,0.0066,294.283,96.552,94.865,,,,,,,,,,,,
CalCOFI,2101RL,040,,2101_040d,24-Jan-2021 10:13:24,24-Jan-2021 02:13:24,32.98904,-120.34868,086.7 060.0,086.7,060.0,5.000,5.036,,13.5963,,13.5960,,13.5962,33.3645,,33.3703,33.3615,,33.3635,33.3669,5.7117,,5.9778,6.0615,5.6169,,5.9637,6.0388,6.0502,248.861,260.7679,264.4708,244.733,277.1897,263.4842,263.9775,0.1596,,1.0596,0.7799, ,, , ,25.0065,,25.0042,,0.8602,80.6508,,,,3.6947E+00,,1.0000E-12,,13.5956,13.5953,0.0096,294.294,96.558,94.954,,,,,,,,,,,,
CalCOFI,2101RL,040,,2101_040d,24-Jan-2021 10:13:26,24-Jan-2021 02:13:26,32.98904,-120.34868,086.7 060.0,086.7,060.0,6.000,6.043,,13.5958,,13.5954,,13.5956,33.3643,,33.3701,33.3612,,33.3632,33.3667,5.7143,,5.9805,6.0643,5.6330,,5.9808,6.0561,6.0602,248.974,260.8862,264.5900,245.434,277.3154,264.2374,264.4137,0.1596,,1.0596,0.7799, ,, , ,25.0065,,25.0041,,0.8611,80.6321,,,,3.6947E+00,,1.0000E-12,,13.5950,13.5946,0.0126,294.324,96.601,95.224,,,,,,,,,,,,
CalCOFI,2101RL,040,,2101_040d,24-Jan-2021 10:13:27,24-Jan-2021 02:13:27,32.98904,-120.34868,086.7 060.0,086.7,060.0,7.000,7.050,,13.5974,,13.5976,,13.5975,33.3639,,33.3697,33.3610,,33.3630,33.3664,5.7174,,5.9837,6.0675,5.6434,,5.9919,6.0673,6.0674,249.109,261.0275,264.7323,245.887,277.4655,264.7241,264.7282,0.1675,,1.1243,0.8256, ,, , ,25.0058,,25.0036,,0.8624,80.6064,,,,3.6947E+00,,1.0000E-12,,13.5965,13.5966,0.0155,294.412,96.656,95.404,,,,,,,,,,,,
CalCOFI,2101RL,040,,2101_040d,24-Jan-2021 10:13:29,24-Jan-2021 02:13:29,32.98904,-120.34868,086.7 060.0,086.7,060.0,8.000,8.057,,13.5981,,13.5984,,13.5983,33.3641,,33.3699,33.3613,,33.3633,33.3666,5.7197,,5.9861,6.0700,5.6469,,5.9956,6.0710,6.0705,249.212,261.1353,264.8410,246.039,277.5801,264.8874,264.8642,0.1580,,1.0465,0.7707, ,, , ,25.0059,,25.0037,,0.8619,80.6158,,,,3.6947E+00,,1.0000E-12,,13.5970,13.5973,0.0185,294.433,96.697,95.465,,,,,,,,,,,,
CalCOFI,2101RL,040,,2101_040d,24-Jan-2021 10:13:31,24-Jan-2021 02:13:31,32.98906,-120.34868,086.7 060.0,086.7,060.0,9.000,9.064,,13.6032,,13.6053,,13.6043,33.3641,,33.3699,33.3617,,33.3637,33.3668,5.7108,,5.9768,6.0606,5.6369,,5.9850,6.0603,6.0605,248.824,260.7292,264.4318,245.601,277.1486,264.4168,264.4243,0.1550,,1.0219,0.7533, ,, , ,25.0049,,25.0026,,0.8587,80.6808,,,,3.6947E+00,,1.0000E-12,,13.6020,13.6040,0.0214,294.556,96.557,95.308,9,,33.3465,5.950,259.59,0.759,0.246,,,,,
CalCOFI,2101RL,040,,2101_040d,24-Jan-2021 10:13:34,24-Jan-2021 02:13:34,32.98905,-120.34869,086.7 060.0,086.7,060.0,10.000,10.071,,13.6073,,13.6076,,13.6075,33.3651,,33.3709,33.3624,,33.3644,33.3677,5.7070,,5.9728,6.0566,5.6439,,5.9924,6.0678,6.0622,248.657,260.5543,264.2556,245.907,276.9629,264.7456,264.5006,0.1595,,1.0588,0.7793, ,, , ,25.0048,,25.0027,,0.8588,80.6784,,,,3.6947E+00,,1.0000E-12,,13.6060,13.6062,0.0244,294.591,96.500,95.432,,,,,,,,,,,,
CalCOFI,2101RL,040,,2101_040d,24-Jan-2021 10:13:38,24-Jan-2021 02:13:38,32.98905,-120.34870,086.7 060.0,086.7,060.0,11.000,11.078,,13.6033,,13.6038,,13.6036,33.3645,,33.3703,33.3616,,33.3636,33.3670,5.7227,,5.9893,6.0731,5.6573,,6.0066,6.0822,6.0777,249.339,261.2683,264.9749,246.492,277.7213,265.3741,265.1745,0.1612,,1.0727,0.7892, ,, , ,25.0053,,25.0029,,0.8598,80.6573,,,,3.6947E+00,,1.0000E-12,,13.6018,13.6023,0.0280,294.580,96.757,95.651,,,,,,,,,,,,
CalCOFI,2101RL,040,,2101_040d,24-Jan-2021 10:13:42,24-Jan-2021 02:13:42,32.98908,-120.34870,086.7 060.0,086.7,060.0,12.000,12.086,,13.6055,,13.6074,,13.6065,33.3648,,33.3706,33.3622,,33.3642,33.3674,5.7204,,5.9869,6.0707,5.6465,,5.9951,6.0706,6.0707,249.242,261.1667,264.8726,246.021,277.6134,264.8681,264.8704,0.1686,,1.1333,0.8319, ,, , ,25.0051,,25.0026,,0.8598,80.6588,,,,3.6947E+00,,1.0000E-12,,13.6038,13.6057,0.0313,294.626,96.724,95.476,,,,,,,,,,,,
CalCOFI,2101RL,040,,2101_040d,24-Jan-2021 10:13:47,24-Jan-2021 02:13:47,32.98908,-120.34869,086.7 060.0,086.7,060.0,13.000,13.093,,13.6069,,13.6077,,13.6073,33.3649,,33.3707,33.3621,,33.3641,33.3674,5.7159,,5.9822,6.0660,5.6396,,5.9878,6.0632,6.0646,249.045,260.9605,264.6648,245.719,277.3943,264.5436,264.6042,0.1715,,1.1571,0.8487, ,, , ,25.0049,,25.0025,,0.8592,80.6695,,,,3.6947E+00,,1.0000E-12,,13.6051,13.6059,0.0344,294.670,96.650,95.359,,,,,,,,,,,,
CalCOFI,2101RL,040,,2101_040d,24-Jan-2021 10:13:51,24-Jan-2021 02:13:51,32.98906,-120.34870,086.7 060.0,086.7,060.0,14.000,14.100,,13.6094,,13.6097,,13.6096,33.3655,,33.3713,33.3625,,33.3645,33.3679,5.7208,,5.9873,6.0711,5.6402,,5.9885,6.0638,6.0675,249.259,261.1845,264.8905,245.749,277.6323,264.5758,264.7332,0.1697,,1.1423,0.8383, ,, , ,25.0049,,25.0025,,0.8613,80.6293,,,,3.6947E+00,,1.0000E-12,,13.6075,13.6078,0.0375,294.700,96.739,95.375,,,,,,,,,,,,
CalCOFI,2101RL,040,,2101_040d,24-Jan-2021 10:13:52,24-Jan-2021 02:13:52,32.98906,-120.34870,086.7 060.0,086.7,060.0,15.000,15.107,,13.6095,,13.6103,,13.6099,33.3653,,33.3711,33.3625,,33.3645,33.3678,5.7179,,5.9843,6.0681,5.6409,,5.9892,6.0646,6.0664,249.131,261.0505,264.7555,245.777,277.4900,264.6059,264.6807,0.1696,,1.1415,0.8377, ,, , ,25.0047,,25.0024,,0.8609,80.6369,,,,3.6947E+00,,1.0000E-12,,13.6074,13.6082,0.0404,294.746,96.689,95.387,,,,,,,,,,,,
CalCOFI,2101RL,040,,2101_040d,24-Jan-2021 10:13:54,24-Jan-2021 02:13:54,32.98908,-120.34868,086.7 060.0,086.7,060.0,16.000,16.114,,13.6099,,13.6103,,13.6101,33.3655,,33.3713,33.3625,,33.3645,33.3679,5.7068,,5.9726,6.0564,5.6442,,5.9927,6.0681,6.0623,248.648,260.5449,264.2462,245.922,276.9529,264.7617,264.5040,0.1703,,1.1473,0.8418, ,, , ,25.0048,,25.0024,,0.8602,80.6501,,,,3.6947E+00,,1.0000E-12,,13.6077,13.6080,0.0434,294.762,96.502,95.443,,,,,,,,,,,,
CalCOFI,2101RL,040,,2101_040d,24-Jan-2021 10:13:56,24-Jan-2021 02:13:56,32.98908,-120.34869,086.7 060.0,086.7,060.0,17.000,17.121,,13.6104,,13.6109,,13.6107,33.3655,,33.3713,33.3627,,33.3647,33.3680,5.7093,,5.9753,6.0590,5.6414,,5.9897,6.0651,6.0621,248.757,260.6590,264.3611,245.799,277.0741,264.6295,264.4953,0.1663,,1.1145,0.8187, ,, , ,25.0048,,25.0025,,0.8595,80.6631,,,,3.6947E+00,,1.0000E-12,,13.6080,13.6085,0.0464,294.795,96.546,95.397,,,,,,,,,,,,
CalCOFI,2101RL,040,,2101_040d,24-Jan-2021 10:13:59,24-Jan-2021 02:13:59,32.98906,-120.34868,086.7 060.0,086.7,060.0,18.000,18.129,,13.6107,,13.6109,,13.6108,33.3657,,33.3715,33.3627,,33.3647,33.3681,5.7155,,5.9817,6.0655,5.6423,,5.9907,6.0661,6.0658,249.026,260.9406,264.6448,245.837,277.3732,264.6704,264.6576,0.1620,,1.0792,0.7938, ,, , ,25.0048,,25.0025,,0.8603,80.6490,,,,3.6947E+00,,1.0000E-12,,13.6082,13.6084,0.0493,294.815,96.651,95.412,,,,,,,,,,,,
CalCOFI,2101RL,040,,2101_040d,24-Jan-2021 10:14:01,24-Jan-2021 02:14:01,32.98906,-120.34868,086.7 060.0,086.7,060.0,19.000,19.136,,13.6110,,13.6116,,13.6113,33.3657,,33.3715,33.3626,,33.3646,33.3681,5.7030,,5.9687,6.0524,5.6425,,5.9909,6.0663,6.0594,248.484,260.3733,264.0732,245.847,276.7705,264.6811,264.3772,0.1641,,1.0965,0.8059, ,, , ,25.0048,,25.0023,,0.8658,80.5388,,,,3.6947E+00,,1.0000E-12,,13.6084,13.6089,0.0523,294.849,96.441,95.417,19,,33.3400,5.954,259.73,0.806,0.243,,,,,
CalCOFI,2101RL,040,,2101_040d,24-Jan-2021 10:14:03,24-Jan-2021 02:14:03,32.98907,-120.34869,086.7 060.0,086.7,060.0,20.000,20.143,,13.6119,,13.6120,,13.6120,33.3657,,33.3715,33.3628,,33.3648,33.3682,5.6864,,5.9513,6.0349,5.6494,,5.9982,6.0737,6.0543,247.760,259.6154,263.3096,246.146,275.9654,265.0024,264.1560,0.1650,,1.1038,0.8111, ,, , ,25.0046,,25.0024,,0.8595,80.6651,,,,3.6947E+00,,1.0000E-12,,13.6091,13.6092,0.0553,294.890,96.162,95.534,,,,,,,,,,,,
CalCOFI,2101RL,040,,2101_040d,24-Jan-2021 10:14:04,24-Jan-2021 02:14:04,32.98908,-120.34870,086.7 060.0,086.7,060.0,21.000,21.150,,13.6109,,13.6115,,13.6112,33.3655,,33.3713,33.3627,,33.3647,33.3680,5.6998,,5.9653,6.0490,5.6419,,5.9903,6.0657,6.0574,248.343,260.2257,263.9245,245.819,276.6137,264.6510,264.2878,0.1658,,1.1104,0.8158, ,, , ,25.0047,,25.0025,,0.8596,80.6613,,,,3.6947E+00,,1.0000E-12,,13.6080,13.6085,0.0583,294.909,96.386,95.406,,,,,,,,,,,,
CalCOFI,2101RL,040,,2101_040d,24-Jan-2021 10:14:06,24-Jan-2021 02:14:06,32.98908,-120.34870,086.7 060.0,086.7,060.0,22.000,22.157,,13.6112,,13.6116,,13.6114,33.3659,,33.3717,33.3629,,33.3649,33.3683,5.7157,,5.9820,6.0658,5.6412,,5.9895,6.0649,6.0654,249.035,260.9500,264.6543,245.790,277.3832,264.6199,264.6371,0.1690,,1.1366,0.8343, ,, , ,25.0050,,25.0027,,0.8637,80.5798,,,,3.6947E+00,,1.0000E-12,,13.6082,13.6086,0.0612,294.912,96.655,95.395,,,,,,,,,,,,
CalCOFI,2101RL,040,,2101_040d,24-Jan-2021 10:14:07,24-Jan-2021 02:14:07,32.98906,-120.34868,086.7 060.0,086.7,060.0,23.000,23.165,,13.6080,,13.6083,,13.6082,33.3648,,33.3706,33.3619,,33.3639,33.3673,5.7180,,5.9844,6.0682,5.6501,,5.9990,6.0745,6.0714,249.137,261.0568,264.7619,246.177,277.4967,265.0357,264.8988,0.1624,,1.0825,0.7961, ,, , ,25.0048,,25.0025,,0.8600,80.6548,,,,3.6947E+00,,1.0000E-12,,13.6047,13.6051,0.0642,294.954,96.688,95.538,,,,,,,,,,,,
CalCOFI,2101RL,040,,2101_040d,24-Jan-2021 10:14:12,24-Jan-2021 02:14:12,32.98906,-120.34868,086.7 060.0,086.7,060.0,24.000,24.172,,13.6091,,13.6096,,13.6094,33.3651,,33.3709,33.3622,,33.3642,33.3676,5.7033,,5.9690,6.0527,5.6382,,5.9863,6.0617,6.0572,248.494,260.3837,264.0837,245.659,276.7816,264.4791,264.2814,0.1557,,1.0276,0.7574, ,, , ,25.0049,,25.0025,,0.8591,80.6721,,,,3.6947E+00,,1.0000E-12,,13.6057,13.6062,0.0687,294.980,96.441,95.339,,,,,,,,,,,,
CalCOFI,2101RL,040,,2101_040d,24-Jan-2021 10:14:14,24-Jan-2021 02:14:14,32.98906,-120.34868,086.7 060.0,086.7,060.0,25.000,25.179,,13.6087,,13.6091,,13.6089,33.3651,,33.3709,33.3621,,33.3641,33.3675,5.7114,,5.9775,6.0612,5.6427,,5.9911,6.0665,6.0639,248.848,260.7543,264.4571,245.857,277.1753,264.6919,264.5745,0.1568,,1.0366,0.7637, ,, , ,25.0050,,25.0026,,0.8597,80.6608,,,,3.6947E+00,,1.0000E-12,,13.6052,13.6056,0.0723,294.998,96.577,95.415,,,,,,,,,,,,
CalCOFI,2101RL,040,,2101_040d,24-Jan-2021 10:14:15,24-Jan-2021 02:14:15,32.98906,-120.34868,086.7 060.0,086.7,060.0,26.000,26.186,,13.6100,,13.6100,,13.6100,33.3660,,33.3718,33.3627,,33.3647,33.3683,5.7191,,5.9855,6.0693,5.6360,,5.9840,6.0593,6.0643,249.182,261.1039,264.8093,245.565,277.5467,264.3781,264.5937,0.1559,,1.0293,0.7585, ,, , ,25.0055,,25.0029,,0.8602,80.6506,,,,3.6947E+00,,1.0000E-12,,13.6063,13.6063,0.0752,294.976,96.710,95.304,,,,,,,,,,,,
CalCOFI,2101RL,040,,2101_040d,24-Jan-2021 10:14:16,24-Jan-2021 02:14:16,32.98906,-120.34868,086.7 060.0,086.7,060.0,27.000,27.193,,13.6102,,13.6113,,13.6108,33.3666,,33.3724,33.3641,,33.3661,33.3693,5.7141,,5.9803,6.0641,5.6214,,5.9685,6.0437,6.0539,248.965,260.8768,264.5805,244.929,277.3054,263.6948,264.1377,0.1583,,1.0489,0.7724, ,, , ,25.0059,,25.0037,,0.8645,80.5635,,,,3.6947E+00,,1.0000E-12,,13.6065,13.6076,0.0782,294.966,96.627,95.061,,,,,,,,,,,,
CalCOFI,2101RL,040,,2101_040d,24-Jan-2021 10:14:17,24-Jan-2021 02:14:17,32.98906,-120.34870,086.7 060.0,086.7,060.0,28.000,28.201,,13.6107,,13.6110,,13.6109,33.3665,,33.3723,33.3636,,33.3656,33.3690,5.7037,,5.9694,6.0531,5.6338,,5.9817,6.0570,6.0551,248.513,260.4036,264.1038,245.469,276.8028,264.2750,264.1894,0.1617,,1.0768,0.7921, ,, , ,25.0058,,25.0035,,0.8611,80.6311,,,,3.6947E+00,,1.0000E-12,,13.6068,13.6071,0.0812,295.004,96.452,95.269,,,,,,,,,,,,
CalCOFI,2101RL,040,,2101_040d,24-Jan-2021 10:14:21,24-Jan-2021 02:14:21,32.98906,-120.34870,086.7 060.0,086.7,060.0,29.000,29.208,,13.6112,,13.6114,,13.6113,33.3666,,33.3724,33.3636,,33.3656,33.3690,5.7064,,5.9722,6.0560,5.6327,,5.9805,6.0558,6.0559,248.631,260.5271,264.2282,245.421,276.9340,264.2234,264.2258,0.1661,,1.1128,0.8175, ,, , ,25.0058,,25.0034,,0.8601,80.6509,,,,3.6947E+00,,1.0000E-12,,13.6071,13.6073,0.0851,295.034,96.499,95.252,,,,,,,,,,,,
CalCOFI,2101RL,040,,2101_040d,24-Jan-2021 10:14:24,24-Jan-2021 02:14:24,32.98906,-120.34870,086.7 060.0,086.7,060.0,30.000,30.215,,13.6123,,13.6129,,13.6126,33.3670,,33.3728,33.3644,,33.3664,33.3696,5.7119,,5.9780,6.0617,5.6210,,5.9681,6.0432,6.0525,248.868,260.7752,264.4781,244.912,277.1975,263.6765,264.0773,0.1550,,1.0219,0.7533, ,, , ,25.0059,,25.0037,,0.8593,80.6679,,,,3.6947E+00,,1.0000E-12,,13.6081,13.6087,0.0888,295.053,96.593,95.057,,,,,,,,,,,,
CalCOFI,2101RL,040,,2101_040d,24-Jan-2021 10:14:25,24-Jan-2021 02:14:25,32.98906,-120.34870,086.7 060.0,086.7,060.0,31.000,31.222,,13.6088,,13.6097,,13.6093,33.3656,,33.3714,33.3631,,33.3651,33.3683,5.7107,,5.9767,6.0605,5.6319,,5.9796,6.0549,6.0577,248.818,260.7229,264.4254,245.383,277.1419,264.1826,264.3040,0.1538,,1.0121,0.7464, ,, , ,25.0055,,25.0034,,0.8595,80.6650,,,,3.6947E+00,,1.0000E-12,,13.6045,13.6054,0.0918,295.114,96.566,95.233,,,,,,,,,,,,
CalCOFI,2101RL,040,,2101_040d,24-Jan-2021 10:14:26,24-Jan-2021 02:14:26,32.98905,-120.34870,086.7 060.0,086.7,060.0,32.000,32.230,,13.6072,,13.6077,,13.6075,33.3649,,33.3707,33.3622,,33.3642,33.3675,5.7069,,5.9727,6.0565,5.6355,,5.9835,6.0588,6.0577,248.652,260.5491,264.2504,245.543,276.9573,264.3545,264.3025,0.1591,,1.0555,0.7770, ,, , ,25.0053,,25.0031,,0.8594,80.6670,,,,3.6947E+00,,1.0000E-12,,13.6028,13.6032,0.0948,295.161,96.498,95.291,,,,,,,,,,,,
CalCOFI,2101RL,040,,2101_040d,24-Jan-2021 10:14:28,24-Jan-2021 02:14:28,32.98904,-120.34870,086.7 060.0,086.7,060.0,33.000,33.237,,13.6067,,13.6057,,13.6062,33.3649,,33.3707,33.3615,,33.3635,33.3671,5.7077,,5.9736,6.0573,5.6250,,5.9723,6.0475,6.0524,248.690,260.5889,264.2904,245.083,276.9996,263.8603,264.0754,0.1647,,1.1014,0.8094, ,, , ,25.0055,,25.0031,,0.8594,80.6666,,,,3.6947E+00,,1.0000E-12,,13.6021,13.6011,0.0977,295.175,96.512,95.108,,,,,,,,,,,,
CalCOFI,2101RL,040,,2101_040d,24-Jan-2021 10:14:31,24-Jan-2021 02:14:31,32.98906,-120.34868,086.7 060.0,086.7,060.0,34.000,34.244,,13.6088,,13.6088,,13.6088,33.3653,,33.3711,33.3624,,33.3644,33.3678,5.7006,,5.9661,6.0498,5.6208,,5.9679,6.0430,6.0464,248.380,260.2644,263.9635,244.901,276.6549,263.6647,263.8141,0.1657,,1.1096,0.8152, ,, , ,25.0054,,25.0031,,0.8590,80.6737,,,,3.6947E+00,,1.0000E-12,,13.6041,13.6040,0.1007,295.214,96.396,95.044,,,,,,,,,,,,
CalCOFI,2101RL,040,,2101_040d,24-Jan-2021 10:14:33,24-Jan-2021 02:14:33,32.98906,-120.34870,086.7 060.0,086.7,060.0,35.000,35.251,,13.6083,,13.6088,,13.6086,33.3644,,33.3702,33.3615,,33.3635,33.3669,5.7181,,5.9845,6.0683,5.6194,,5.9664,6.0415,6.0549,249.139,261.0589,264.7640,244.842,277.4989,263.6013,264.1827,0.1685,,1.1325,0.8314, ,, , ,25.0048,,25.0025,,0.8599,80.6554,,,,3.6947E+00,,1.0000E-12,,13.6034,13.6039,0.1037,295.293,96.689,95.021,,,,,,,,,,,,
CalCOFI,2101RL,040,,2101_040d,24-Jan-2021 10:14:34,24-Jan-2021 02:14:34,32.98906,-120.34870,086.7 060.0,086.7,060.0,36.000,36.259,,13.6098,,13.6103,,13.6101,33.3653,,33.3711,33.3623,,33.3643,33.3677,5.7195,,5.9859,6.0698,5.6180,,5.9649,6.0400,6.0549,249.201,261.1238,264.8294,244.779,277.5678,263.5337,264.1816,0.1663,,1.1145,0.8187, ,, , ,25.0052,,25.0028,,0.8605,80.6438,,,,3.6947E+00,,1.0000E-12,,13.6048,13.6052,0.1067,295.281,96.717,94.999,,,,,,,,,,,,
CalCOFI,2101RL,040,,2101_040d,24-Jan-2021 10:14:36,24-Jan-2021 02:14:36,32.98906,-120.34870,086.7 060.0,086.7,060.0,37.000,37.266,,13.6105,,13.6113,,13.6109,33.3656,,33.3714,33.3628,,33.3648,33.3681,5.7072,,5.9731,6.0568,5.6221,,5.9692,6.0444,6.0506,248.664,260.5617,264.2630,244.960,276.9707,263.7281,263.9956,0.1731,,1.1702,0.8580, ,, , ,25.0053,,25.0031,,0.8601,80.6528,,,,3.6947E+00,,1.0000E-12,,13.6054,13.6061,0.1097,295.299,96.510,95.072,,,,,,,,,,,,
CalCOFI,2101RL,040,,2101_040d,24-Jan-2021 10:14:40,24-Jan-2021 02:14:40,32.98906,-120.34872,086.7 060.0,086.7,060.0,38.000,38.273,,13.6103,,13.6110,,13.6107,33.3655,,33.3713,33.3626,,33.3646,33.3680,5.6891,,5.9541,6.0377,5.6098,,5.9562,6.0312,6.0345,247.878,259.7389,263.4341,244.420,276.0966,263.1479,263.2910,0.1631,,1.0883,0.8002, ,, , ,25.0053,,25.0030,,0.8592,80.6703,,,,3.6947E+00,,1.0000E-12,,13.6050,13.6057,0.1128,295.331,96.204,94.862,,,,,,,,,,,,
CalCOFI,2101RL,040,,2101_040d,24-Jan-2021 10:14:42,24-Jan-2021 02:14:42,32.98906,-120.34872,086.7 060.0,086.7,060.0,39.000,39.281,,13.6146,,13.6141,,13.6144,33.3675,,33.3733,33.3644,,33.3664,33.3699,5.6733,,5.9376,6.0211,5.6041,,5.9501,6.0251,6.0231,247.188,259.0166,262.7064,244.174,275.3293,262.8836,262.7950,0.1610,,1.0711,0.7880, ,, , ,25.0060,,25.0038,,0.8567,80.7200,,,,3.6947E+00,,1.0000E-12,,13.6091,13.6087,0.1157,295.290,95.946,94.773,,,,,,,,,,,,
CalCOFI,2101RL,040,,2101_040d,24-Jan-2021 10:14:43,24-Jan-2021 02:14:43,32.98906,-120.34872,086.7 060.0,086.7,060.0,40.000,40.288,,13.6167,,13.6154,,13.6161,33.3714,,33.3772,33.3666,,33.3686,33.3729,5.6467,,5.9097,5.9931,5.5832,,5.9279,6.0027,5.9979,246.029,257.8034,261.4840,243.261,274.0405,261.9027,261.6934,0.1593,,1.0571,0.7782, ,, , ,25.0086,,25.0052,,0.8511,80.8341,,,,3.6947E+00,,1.0000E-12,,13.6111,13.6098,0.1187,295.070,95.503,94.423,,,,,,,,,,,,
CalCOFI,2101RL,040,,2101_040d,24-Jan-2021 10:14:44,24-Jan-2021 02:14:44,32.98906,-120.34872,086.7 060.0,086.7,060.0,41.000,41.295,,13.6374,,13.6376,,13.6375,33.3940,,33.3998,33.3911,,33.3931,33.3965,5.6462,,5.9092,5.9925,5.5624,,5.9058,5.9803,5.9864,246.003,257.7761,261.4566,242.355,274.0116,260.9293,261.1930,0.1504,,0.9842,0.7267, ,, , ,25.0219,,25.0196,,0.8409,81.0408,,,,3.6947E+00,,1.0000E-12,,13.6317,13.6318,0.1217,293.838,95.548,94.129,,,,,,,,,,,,
CalCOFI,2101RL,040,,2101_040d,24-Jan-2021 10:14:46,24-Jan-2021 02:14:46,32.98906,-120.34872,086.7 060.0,086.7,060.0,42.000,42.303,,13.6381,,13.6392,,13.6387,33.3997,,33.4055,33.3929,,33.3949,33.4002,5.6374,,5.9000,5.9833,5.5645,,5.9081,5.9826,5.9830,245.617,257.3721,261.0495,242.445,273.5824,261.0260,261.0378,0.1457,,0.9457,0.6996, ,, , ,25.0262,,25.0207,,0.8317,81.2274,,,,3.6947E+00,,1.0000E-12,,13.6322,13.6333,0.1246,293.457,95.403,94.169,,,,,,,,,,,,
CalCOFI,2101RL,040,,2101_040d,24-Jan-2021 10:14:49,24-Jan-2021 02:14:49,32.98906,-120.34872,086.7 060.0,086.7,060.0,43.000,43.310,,13.6346,,13.6352,,13.6349,33.4035,,33.4093,33.4036,,33.4056,33.4075,5.5970,,5.8577,5.9407,5.5253,,5.8664,5.9405,5.9406,243.857,255.5297,259.1933,240.734,271.6252,259.1877,259.1905,0.1405,,0.9031,0.6695, ,, , ,25.0299,,25.0298,,0.8266,81.3311,,,,3.6947E+00,,1.0000E-12,,13.6286,13.6292,0.1276,293.134,94.715,93.503,,,,,,,,,,,,
CalCOFI,2101RL,040,,2101_040d,24-Jan-2021 10:14:51,24-Jan-2021 02:14:51,32.98906,-120.34872,086.7 060.0,086.7,060.0,44.000,44.317,,13.6359,,13.6339,,13.6349,33.4299,,33.4357,33.4291,,33.4311,33.4334,5.5502,,5.8087,5.8914,5.4628,,5.8000,5.8734,5.8824,241.816,253.3932,257.0408,238.007,269.3556,256.2577,256.6493,0.1163,,0.7048,0.5296, ,, , ,25.0501,,25.0499,,0.8090,81.6893,,,,3.6947E+00,,1.0000E-12,,13.6297,13.6277,0.1305,291.244,93.942,92.458,,,,,,,,,,,,
CalCOFI,2101RL,040,,2101_040d,24-Jan-2021 10:14:54,24-Jan-2021 02:14:54,32.98906,-120.34874,086.7 060.0,086.7,060.0,45.000,45.324,,13.6178,,13.6158,,13.6168,33.4468,,33.4526,33.4502,,33.4522,33.4524,5.4456,,5.6993,5.7812,5.3934,,5.7263,5.7990,5.7901,237.253,248.6166,252.2284,234.977,264.2815,253.0023,252.6154,0.0915,,0.5016,0.3862, ,, , ,25.0669,,25.0700,,0.7863,82.1552,,,,3.6947E+00,,1.0000E-12,,13.6115,13.6095,0.1334,289.670,92.147,91.261,,,,,,,,,,,,
CalCOFI,2101RL,040,,2101_040d,24-Jan-2021 10:14:55,24-Jan-2021 02:14:55,32.98906,-120.34874,086.7 060.0,086.7,060.0,46.000,46.332,,13.5591,,13.5599,,13.5595,33.4613,,33.4671,33.4588,,33.4608,33.4640,5.3026,,5.5496,5.6305,5.2969,,5.6238,5.6954,5.6630,231.016,242.0877,245.6505,230.771,257.3458,248.4833,247.0669,0.0812,,0.4172,0.3267, ,, , ,25.0901,,25.0880,,0.7727,82.4329,,,,3.6947E+00,,1.0000E-12,,13.5527,13.5535,0.1363,287.487,89.627,89.532,,,,,,,,,,,,
CalCOFI,2101RL,040,,2101_040d,24-Jan-2021 10:14:57,24-Jan-2021 02:14:57,32.98906,-120.34874,086.7 060.0,086.7,060.0,47.000,47.339,,13.4707,,13.4698,,13.4703,33.4554,,33.4612,33.4537,,33.4557,33.4585,5.1985,,5.4407,5.5209,5.1934,,5.5139,5.5843,5.5526,226.480,237.3395,240.8666,226.260,252.3017,243.6366,242.2516,0.0781,,0.3918,0.3087, ,, , ,25.1034,,25.1023,,0.7658,82.5760,,,,3.6947E+00,,1.0000E-12,,13.4641,13.4633,0.1392,286.241,87.707,87.619,,,,,,,,,,,,
CalCOFI,2101RL,040,,2101_040d,24-Jan-2021 10:14:59,24-Jan-2021 02:14:59,32.98906,-120.34875,086.7 060.0,086.7,060.0,48.000,48.346,,13.1698,,13.1755,,13.1727,33.4317,,33.4375,33.4293,,33.4313,33.4344,5.1635,,5.4040,5.4840,5.1371,,5.4541,5.5239,5.5040,224.945,235.7326,239.2478,223.797,250.5948,240.9903,240.1191,0.0650,,0.2844,0.2330, ,, , ,25.1457,,25.1426,,0.7556,82.7877,,,,3.6947E+00,,1.0000E-12,,13.1632,13.1690,0.1421,282.220,86.566,86.133,,,,,,,,,,,,
CalCOFI,2101RL,040,,2101_040d,24-Jan-2021 10:15:00,24-Jan-2021 02:15:00,32.98906,-120.34876,086.7 060.0,086.7,060.0,49.000,49.354,,13.0481,,13.0496,,13.0489,33.4194,,33.4252,33.4178,,33.4198,33.4225,5.1842,,5.4257,5.5058,5.1354,,5.4523,5.5220,5.5139,225.843,236.6727,240.1948,223.720,251.5934,240.9076,240.5512,0.0594,,0.2385,0.2006, ,, , ,25.1603,,25.1588,,0.7500,82.9017,,,,3.6947E+00,,1.0000E-12,,13.0415,13.0430,0.1449,280.841,86.689,85.875,,,,,,,,,,,,
CalCOFI,2101RL,040,,2101_040d,24-Jan-2021 10:15:02,24-Jan-2021 02:15:02,32.98906,-120.34875,086.7 060.0,086.7,060.0,50.000,50.361,,12.9527,,12.9481,,12.9504,33.4117,,33.4175,33.4094,,33.4114,33.4145,5.2378,,5.4818,5.5623,5.1559,,5.4741,5.5441,5.5532,228.177,239.1159,242.6564,224.609,254.1888,241.8627,242.2596,0.0570,,0.2189,0.1867, ,, , ,25.1732,,25.1724,,0.7474,82.9568,,,,3.6947E+00,,1.0000E-12,,12.9459,12.9413,0.1478,279.631,87.409,86.033,50,,33.4345,5.704,248.82,0.311,0.208,,,,,
CalCOFI,2101RL,040,,2101_040d,24-Jan-2021 10:15:07,24-Jan-2021 02:15:07,32.98906,-120.34874,086.7 060.0,086.7,060.0,51.000,51.368,,13.0664,,13.0080,,13.0372,33.4222,,33.4280,33.4127,,33.4147,33.4214,5.1045,,5.3423,5.4218,5.0630,,5.3754,5.4443,5.4331,222.374,233.0413,236.5363,220.562,247.7358,237.5146,237.0255,0.0552,,0.2041,0.1763, ,, , ,25.1589,,25.1631,,0.7567,82.7637,,,,3.6947E+00,,1.0000E-12,,13.0595,13.0010,0.1506,281.034,85.393,84.590,,,,,,,,,,,,
CalCOFI,2101RL,040,,2101_040d,24-Jan-2021 10:15:09,24-Jan-2021 02:15:09,32.98905,-120.34875,086.7 060.0,086.7,060.0,52.000,52.376,,12.8202,,12.8223,,12.8213,33.4066,,33.4124,33.4036,,33.4056,33.4090,5.0681,,5.3042,5.3835,5.0289,,5.3392,5.4077,5.3956,220.777,231.3696,234.8520,219.072,245.9599,235.9137,235.3829,0.0524,,0.1812,0.1601, ,, , ,25.1954,,25.1927,,0.7441,83.0262,,,,3.6947E+00,,1.0000E-12,,12.8132,12.8153,0.1534,277.561,84.342,83.693,,,,,,,,,,,,